Location: Battery Park City
(40.7115°N, 74.0163°W)
Time: 21:27:47
(UTC+00:00)

Okean-O - Pass Details

Date: 08 December 2019
Orbit: 639 x 640 km, 98.2° (Epoch: 28 January)

Event Time Altitude Azimuth Distance (km) Brightness Sun altitude
Rises 22:51:02 0° 169° (SSE) 2,930 6.1 -15.2°
Reaches altitude 10° 22:53:14 10° 170° (S) 2,026 5.3 -15.6°
Maximum altitude 22:57:39 79° 257° (WSW) 658 2.7 -16.4°
Drops below altitude 10° 23:02:06 10° 344° (NNW) 2,041 5.2 -17.2°
Sets 23:04:19 0° 346° (NNW) 2,955 6.0 -17.6°
